AISSAT 2 (40075 NORAD) Tracking and Keplerian Element Data

This shows tracking and keplerian element data for the satellite.

Feedback or suggestion? Click here.




ElementValue
Catalog40075
NameAISSAT 2
Epoch Orbit45287
Epoch Day325.08575568
Epoch Year2022
RAAN207.0809
Inclination98.3711
Eccentricity0.0005267
Argument of Perigee167.5459
Mean Anonmoly192.5865
Mean Motion14.83435377
Decay Rate1.143E-05
L11 40075U 14037G 22325.08575568 .00001143 00000+0 14639-3 0 9993
L22 40075 98.3711 207.0809 0005267 167.5459 192.5865 14.83435377452877



Live tracking and technical data element details for AISSAT 2 (NORAD 40075). AISSAT 2 can be tracked NOW for your location showing map with azimuth and elevation plus other details from your city location.







IsCatalogInMostPopularTable: catalog: 40075, numindb: 24829
Update: records affected: 1



GetName: 40075 AISSAT 2

Hit Count: updated at: Sun, 04 Dec 2022 22:43:08 GMT